| time (UTC) | temp F | wind direction | speed knots | gust knots | rain 1hr in | rain 24hr in | rain mn in | humidity % | barometer mb |
| 20260507023205 | 75 | 228 | 0.0 | 3.5 | 0.00 | 0.00 | 0.00 | 22 | 1016.3 |
| 20260507022706 | 75 | 228 | 1.7 | 3.5 | 0.00 | 0.00 | 0.00 | 22 | 1016.3 |
| 20260507021704 | 76 | 358 | 1.7 | 3.5 | 0.00 | 0.00 | 0.00 | 21 | 1016.2 |
| 20260507020204 | 76 | 358 | 1.7 | 3.5 | 0.00 | 0.00 | 0.00 | 21 | 1016.2 |
| 20260507015704 | 76 | 358 | 1.7 | 7.8 | 0.00 | 0.00 | 0.00 | 20 | 1016.2 |
| 20260507015205 | 76 | 358 | 1.7 | 8.7 | 0.00 | 0.00 | 0.00 | 21 | 1016.2 |
| 20260507014204 | 77 | 230 | 4.3 | 8.7 | 0.00 | 0.00 | 0.00 | 19 | 1016.1 |
| 20260507013704 | 77 | 240 | 3.5 | 8.7 | 0.00 | 0.00 | 0.00 | 19 | 1016.1 |
| 20260507013204 | 78 | 222 | 3.5 | 10.4 | 0.00 | 0.00 | 0.00 | 19 | 1016.1 |
| 20260507012704 | 78 | 134 | 3.5 | 10.4 | 0.00 | 0.00 | 0.00 | 18 | 1016.0 |
| 20260507010704 | 79 | 161 | 2.6 | 7.0 | 0.00 | 0.00 | 0.00 | 18 | 1016.0 |
| 20260507010205 | 79 | 148 | 2.6 | 8.7 | 0.00 | 0.00 | 0.00 | 18 | 1016.0 |
| 20260507005704 | 79 | 144 | 2.6 | 8.7 | 0.00 | 0.00 | 0.00 | 18 | 1016.0 |
| 20260507005204 | 79 | 183 | 3.5 | 7.0 | 0.00 | 0.00 | 0.00 | 18 | 1016.0 |
| 20260507004704 | 79 | 188 | 2.6 | 7.0 | 0.00 | 0.00 | 0.00 | 19 | 1016.0 |
| 20260507004204 | 79 | 157 | 2.6 | 8.7 | 0.00 | 0.00 | 0.00 | 19 | 1016.0 |
| 20260507003704 | 79 | 200 | 3.5 | 8.7 | 0.00 | 0.00 | 0.00 | 19 | 1016.1 |
| 20260507003204 | 79 | 153 | 3.5 | 8.7 | 0.00 | 0.00 | 0.00 | 19 | 1016.1 |
| 20260507002704 | 79 | 167 | 2.6 | 8.7 | 0.00 | 0.00 | 0.00 | 19 | 1016.1 |
| 20260507002204 | 79 | 230 | 3.5 | 8.7 | 0.00 | 0.00 | 0.00 | 19 | 1016.1 |
| 20260507001704 | 79 | 136 | 3.5 | 8.7 | 0.00 | 0.00 | 0.00 | 19 | 1016.1 |
| 20260507001204 | 79 | 111 | 2.6 | 7.0 | 0.00 | 0.00 | 0.00 | 19 | 1016.1 |
| 20260507000704 | 79 | 158 | 2.6 | 9.6 | 0.00 | 0.00 | 0.00 | 20 | 1016.1 |
| 20260507000205 | 79 | 134 | 2.6 | 9.6 | 0.00 | 0.00 | 0.00 | 20 | 1016.0 |
| 20260506235705 | 79 | 226 | 3.5 | 8.7 | 0.00 | 0.00 | 0.00 | 20 | 1016.1 |
| 20260506235204 | 79 | 184 | 3.5 | 9.6 | 0.00 | 0.00 | 0.00 | 20 | 1016.1 |
| 20260506234704 | 79 | 148 | 3.5 | 9.6 | 0.00 | 0.00 | 0.00 | 20 | 1016.1 |
| 20260506234204 | 79 | 192 | 3.5 | 9.6 | 0.00 | 0.00 | 0.00 | 20 | 1016.1 |
| 20260506233205 | 78 | 139 | 5.2 | 11.3 | 0.00 | 0.00 | 0.00 | 21 | 1016.1 |
| 20260506232705 | 78 | 144 | 6.1 | 11.3 | 0.00 | 0.00 | 0.00 | 21 | 1016.3 |
| 20260506232205 | 78 | 150 | 5.2 | 11.3 | 0.00 | 0.00 | 0.00 | 20 | 1016.3 |
| 20260506231704 | 78 | 153 | 5.2 | 13.0 | 0.00 | 0.00 | 0.00 | 21 | 1016.2 |
| 20260506230704 | 78 | 184 | 5.2 | 13.0 | 0.00 | 0.00 | 0.00 | 22 | 1016.2 |
| 20260506230204 | 78 | 145 | 3.5 | 9.6 | 0.00 | 0.00 | 0.00 | 21 | 1016.3 |
| 20260506225205 | 78 | 230 | 5.2 | 13.0 | 0.00 | 0.00 | 0.00 | 23 | 1016.4 |
| 20260506224204 | 78 | 154 | 4.3 | 14.8 | 0.00 | 0.00 | 0.00 | 22 | 1016.5 |
| 20260506223704 | 78 | 159 | 5.2 | 14.8 | 0.00 | 0.00 | 0.00 | 23 | 1016.5 |
| 20260506223204 | 78 | 219 | 5.2 | 14.8 | 0.00 | 0.00 | 0.00 | 24 | 1016.6 |
| 20260506222204 | 77 | 223 | 4.3 | 11.3 | 0.00 | 0.00 | 0.00 | 24 | 1016.6 |
| 20260506221705 | 77 | 179 | 4.3 | 13.0 | 0.00 | 0.00 | 0.00 | 26 | 1016.8 |
| 20260506221204 | 77 | 98 | 5.2 | 13.0 | 0.00 | 0.00 | 0.00 | 25 | 1016.8 |
| 20260506220704 | 77 | 163 | 5.2 | 13.0 | 0.00 | 0.00 | 0.00 | 26 | 1017.0 |
| 20260506220204 | 77 | 190 | 2.6 | 11.3 | 0.00 | 0.00 | 0.00 | 26 | 1016.8 |
| 20260506215704 | 76 | 187 | 3.5 | 13.0 | 0.00 | 0.00 | 0.00 | 28 | 1017.0 |
| 20260506215205 | 76 | 222 | 6.1 | 15.6 | 0.00 | 0.00 | 0.00 | 28 | 1017.0 |
| 20260506214204 | 76 | 225 | 5.2 | 10.4 | 0.00 | 0.00 | 0.00 | 27 | 1017.1 |
| 20260506213704 | 77 | 222 | 4.3 | 11.3 | 0.00 | 0.00 | 0.00 | 26 | 1017.2 |
| 20260506211704 | 76 | 231 | 5.2 | 10.4 | 0.00 | 0.00 | 0.00 | 28 | 1017.4 |
| 20260506211204 | 76 | 247 | 4.3 | 12.2 | 0.00 | 0.00 | 0.00 | 27 | 1017.4 |
| 20260506210704 | 76 | 115 | 4.3 | 12.2 | 0.00 | 0.00 | 0.00 | 27 | 1017.4 |
| 20260506210204 | 76 | 235 | 4.3 | 12.2 | 0.00 | 0.00 | 0.00 | 28 | 1017.4 |
| 20260506205704 | 76 | 228 | 3.5 | 7.8 | 0.00 | 0.00 | 0.00 | 26 | 1017.5 |
| 20260506204704 | 76 | 179 | 4.3 | 13.0 | 0.00 | 0.00 | 0.00 | 27 | 1017.5 |
| 20260506204205 | 75 | 144 | 4.3 | 13.0 | 0.00 | 0.00 | 0.00 | 27 | 1017.6 |
| 20260506203204 | 76 | 160 | 5.2 | 13.9 | 0.00 | 0.00 | 0.00 | 26 | 1017.6 |
| 20260506202704 | 76 | 150 | 3.5 | 13.9 | 0.00 | 0.00 | 0.00 | 27 | 1017.6 |
| 20260506202204 | 76 | 71 | 2.6 | 7.0 | 0.00 | 0.00 | 0.00 | 27 | 1017.6 |
| 20260506201704 | 75 | 217 | 2.6 | 7.0 | 0.00 | 0.00 | 0.00 | 28 | 1017.6 |
| 20260506201204 | 75 | 223 | 2.6 | 7.8 | 0.00 | 0.00 | 0.00 | 27 | 1017.7 |
| 20260506200704 | 75 | 223 | 3.5 | 7.8 | 0.00 | 0.00 | 0.00 | 27 | 1017.8 |
| 20260506200204 | 75 | 154 | 2.6 | 7.8 | 0.00 | 0.00 | 0.00 | 28 | 1017.8 |
| 20260506195704 | 74 | 172 | 3.5 | 7.8 | 0.00 | 0.00 | 0.00 | 28 | 1017.8 |
| 20260506195204 | 74 | 169 | 3.5 | 8.7 | 0.00 | 0.00 | 0.00 | 28 | 1018.0 |
| 20260506194704 | 74 | 198 | 3.5 | 9.6 | 0.00 | 0.00 | 0.00 | 29 | 1018.0 |
| 20260506194204 | 73 | 163 | 4.3 | 9.6 | 0.00 | 0.00 | 0.00 | 29 | 1018.0 |
| 20260506193704 | 73 | 148 | 5.2 | 9.6 | 0.00 | 0.00 | 0.00 | 28 | 1018.1 |
| 20260506192704 | 73 | 115 | 3.5 | 7.0 | 0.00 | 0.00 | 0.00 | 30 | 1018.1 |
| 20260506192204 | 72 | 234 | 2.6 | 9.6 | 0.00 | 0.00 | 0.00 | 29 | 1018.1 |
| 20260506191704 | 72 | 236 | 3.5 | 9.6 | 0.00 | 0.00 | 0.00 | 31 | 1018.2 |
| 20260506191204 | 72 | 153 | 5.2 | 9.6 | 0.00 | 0.00 | 0.00 | 30 | 1018.3 |
| 20260506190204 | 72 | 153 | 3.5 | 11.3 | 0.00 | 0.00 | 0.00 | 30 | 1018.3 |
| 20260506185704 | 71 | 101 | 5.2 | 11.3 | 0.00 | 0.00 | 0.00 | 31 | 1018.3 |
| 20260506185204 | 72 | 112 | 4.3 | 10.4 | 0.00 | 0.00 | 0.00 | 30 | 1018.4 |
| 20260506184704 | 71 | 146 | 4.3 | 10.4 | 0.00 | 0.00 | 0.00 | 31 | 1018.4 |
| 20260506183204 | 69 | 190 | 5.2 | 11.3 | 0.00 | 0.00 | 0.00 | 32 | 1018.4 |
| 20260506182704 | 69 | 121 | 5.2 | 11.3 | 0.00 | 0.00 | 0.00 | 32 | 1018.5 |
| 20260506182204 | 69 | 90 | 4.3 | 11.3 | 0.00 | 0.00 | 0.00 | 33 | 1018.5 |
| 20260506181704 | 69 | 86 | 5.2 | 11.3 | 0.00 | 0.00 | 0.00 | 33 | 1018.6 |
| 20260506181204 | 69 | 112 | 4.3 | 11.3 | 0.00 | 0.00 | 0.00 | 33 | 1018.5 |
| 20260506180705 | 68 | 358 | 5.2 | 11.3 | 0.00 | 0.00 | 0.00 | 34 | 1018.6 |
| 20260506180204 | 68 | 134 | 5.2 | 11.3 | 0.00 | 0.00 | 0.00 | 35 | 1018.6 |
| 20260506174705 | 67 | 119 | 6.1 | 13.0 | 0.00 | 0.00 | 0.00 | 36 | 1018.6 |
| 20260506174205 | 67 | 124 | 7.0 | 10.4 | 0.00 | 0.00 | 0.00 | 35 | 1018.5 |
| 20260506173704 | 67 | 358 | 6.1 | 10.4 | 0.00 | 0.00 | 0.00 | 35 | 1018.5 |
| 20260506173204 | 67 | 131 | 5.2 | 10.4 | 0.00 | 0.00 | 0.00 | 37 | 1018.5 |
| 20260506172704 | 66 | 103 | 5.2 | 10.4 | 0.00 | 0.00 | 0.00 | 36 | 1018.5 |
| 20260506171704 | 65 | 358 | 6.1 | 10.4 | 0.00 | 0.00 | 0.00 | 40 | 1018.5 |
| 20260506171204 | 65 | 358 | 6.1 | 10.4 | 0.00 | 0.00 | 0.00 | 38 | 1018.5 |
| 20260506170704 | 65 | 358 | 5.2 | 10.4 | 0.00 | 0.00 | 0.00 | 41 | 1018.4 |
| 20260506170205 | 65 | 358 | 5.2 | 11.3 | 0.00 | 0.00 | 0.00 | 40 | 1018.4 |
| 20260506165704 | 64 | 358 | 4.3 | 11.3 | 0.00 | 0.00 | 0.00 | 41 | 1018.3 |
| 20260506165204 | 64 | 82 | 5.2 | 11.3 | 0.00 | 0.00 | 0.00 | 41 | 1018.4 |
| 20260506164704 | 64 | 88 | 6.1 | 12.2 | 0.00 | 0.00 | 0.00 | 42 | 1018.3 |
| 20260506164204 | 64 | 113 | 6.1 | 12.2 | 0.00 | 0.00 | 0.00 | 42 | 1018.4 |
| 20260506163706 | 63 | 86 | 6.1 | 12.2 | 0.00 | 0.00 | 0.00 | 43 | 1018.3 |
| 20260506163205 | 63 | 120 | 5.2 | 9.6 | 0.00 | 0.00 | 0.00 | 43 | 1018.4 |
| 20260506162704 | 62 | 86 | 4.3 | 11.3 | 0.00 | 0.00 | 0.00 | 44 | 1018.3 |
| 20260506161703 | 62 | 80 | 6.1 | 12.2 | 0.00 | 0.00 | 0.00 | 46 | 1018.3 |
| 20260506161205 | 61 | 101 | 6.1 | 12.2 | 0.00 | 0.00 | 0.00 | 46 | 1018.2 |
| 20260506160704 | 60 | 72 | 6.1 | 12.2 | 0.00 | 0.00 | 0.00 | 48 | 1018.3 |
| 20260506160204 | 60 | 81 | 6.1 | 10.4 | 0.00 | 0.00 | 0.00 | 49 | 1018.3 |
| 20260506155704 | 60 | 84 | 5.2 | 10.4 | 0.00 | 0.00 | 0.00 | 50 | 1018.3 |
| 20260506154704 | 59 | 79 | 5.2 | 9.6 | 0.00 | 0.00 | 0.00 | 50 | 1018.3 |
| 20260506154204 | 59 | 82 | 4.3 | 9.6 | 0.00 | 0.00 | 0.00 | 51 | 1018.3 |
| 20260506153705 | 58 | 81 | 4.3 | 9.6 | 0.00 | 0.00 | 0.00 | 52 | 1018.3 |
| 20260506153204 | 58 | 80 | 4.3 | 9.6 | 0.00 | 0.00 | 0.00 | 53 | 1018.3 |
| 20260506152704 | 58 | 73 | 3.5 | 8.7 | 0.00 | 0.00 | 0.00 | 54 | 1018.3 |
| 20260506152206 | 57 | 80 | 3.5 | 11.3 | 0.00 | 0.00 | 0.00 | 55 | 1018.2 |
| 20260506151704 | 57 | 53 | 4.3 | 11.3 | 0.00 | 0.00 | 0.00 | 55 | 1018.1 |
| 20260506151205 | 56 | 72 | 5.2 | 10.4 | 0.00 | 0.00 | 0.00 | 56 | 1018.2 |
| 20260506150704 | 56 | 92 | 4.3 | 9.6 | 0.00 | 0.00 | 0.00 | 56 | 1018.3 |
| 20260506150204 | 56 | 109 | 3.5 | 10.4 | 0.00 | 0.00 | 0.00 | 57 | 1018.2 |
| 20260506145704 | 55 | 76 | 4.3 | 10.4 | 0.00 | 0.00 | 0.00 | 58 | 1018.2 |
| 20260506145205 | 55 | 94 | 4.3 | 7.8 | 0.00 | 0.00 | 0.00 | 58 | 1018.2 |
| 20260506144205 | 54 | 86 | 2.6 | 7.0 | 0.00 | 0.00 | 0.00 | 60 | 1018.1 |
| 20260506143705 | 54 | 80 | 2.6 | 6.1 | 0.00 | 0.00 | 0.00 | 61 | 1018.1 |
| 20260506143204 | 53 | 83 | 2.6 | 6.1 | 0.00 | 0.00 | 0.00 | 62 | 1018.0 |
| 20260506142704 | 53 | 85 | 2.6 | 4.3 | 0.00 | 0.00 | 0.00 | 63 | 1017.8 |
| 20260506142204 | 52 | 8 | 2.6 | 4.3 | 0.00 | 0.00 | 0.00 | 64 | 1017.8 |
| 20260506141704 | 52 | 3 | 2.6 | 4.3 | 0.00 | 0.00 | 0.00 | 65 | 1017.7 |
| 20260506141204 | 51 | 358 | 1.7 | 4.3 | 0.00 | 0.00 | 0.00 | 66 | 1017.6 |
| 20260506140704 | 51 | 334 | 1.7 | 4.3 | 0.00 | 0.00 | 0.00 | 67 | 1017.6 |
| 20260506140204 | 50 | 334 | 2.6 | 4.3 | 0.00 | 0.00 | 0.00 | 67 | 1017.5 |
| 20260506135704 | 49 | 330 | 2.6 | 4.3 | 0.00 | 0.00 | 0.00 | 69 | 1017.5 |
| 20260506135204 | 49 | 330 | 2.6 | 4.3 | 0.00 | 0.00 | 0.00 | 70 | 1017.4 |
| 20260506134705 | 48 | 330 | 2.6 | 3.5 | 0.00 | 0.00 | 0.00 | 71 | 1017.4 |
| 20260506134204 | 47 | 330 | 1.7 | 3.5 | 0.00 | 0.00 | 0.00 | 73 | 1017.4 |
| 20260506133204 | 45 | 330 | 2.6 | 3.5 | 0.00 | 0.00 | 0.00 | 74 | 1017.4 |
| 20260506132704 | 45 | 330 | 2.6 | 3.5 | 0.00 | 0.00 | 0.00 | 74 | 1017.4 |
| 20260506132205 | 44 | 330 | 1.7 | 3.5 | 0.00 | 0.00 | 0.00 | 74 | 1017.3 |
| 20260506131204 | 43 | 330 | 1.7 | 4.3 | 0.00 | 0.00 | 0.00 | 76 | 1017.3 |
| 20260506130704 | 43 | 330 | 2.6 | 4.3 | 0.00 | 0.00 | 0.00 | 76 | 1017.2 |
| 20260506130205 | 42 | 330 | 3.5 | 4.3 | 0.00 | 0.00 | 0.00 | 75 | 1017.1 |
| 20260506125704 | 42 | 330 | 3.5 | 4.3 | 0.00 | 0.00 | 0.00 | 75 | 1017.0 |
| 20260506125204 | 42 | 330 | 3.5 | 4.3 | 0.00 | 0.00 | 0.00 | 74 | 1017.1 |
| 20260506124705 | 43 | 330 | 2.6 | 3.5 | 0.00 | 0.00 | 0.00 | 75 | 1017.0 |
| 20260506124205 | 42 | 330 | 2.6 | 3.5 | 0.00 | 0.00 | 0.00 | 75 | 1017.0 |
| 20260506123706 | 42 | 330 | 2.6 | 4.3 | 0.00 | 0.00 | 0.00 | 75 | 1017.0 |
| 20260506123205 | 42 | 330 | 3.5 | 4.3 | 0.00 | 0.00 | 0.00 | 75 | 1016.7 |
| 20260506122704 | 42 | 330 | 2.6 | 3.5 | 0.00 | 0.00 | 0.00 | 75 | 1016.7 |
| 20260506122204 | 42 | 330 | 2.6 | 3.5 | 0.00 | 0.00 | 0.00 | 75 | 1016.8 |
| 20260506121704 | 42 | 330 | 2.6 | 4.3 | 0.00 | 0.00 | 0.00 | 75 | 1016.7 |
| 20260506121204 | 42 | 330 | 3.5 | 4.3 | 0.00 | 0.00 | 0.00 | 75 | 1016.7 |
| 20260506120704 | 42 | 330 | 3.5 | 4.3 | 0.00 | 0.00 | 0.00 | 75 | 1016.7 |
| 20260506120205 | 42 | 330 | 3.5 | 4.3 | 0.00 | 0.00 | 0.00 | 75 | 1016.7 |
| 20260506115704 | 42 | 330 | 3.5 | 4.3 | 0.00 | 0.00 | 0.00 | 75 | 1016.7 |
| 20260506115204 | 42 | 330 | 3.5 | 4.3 | 0.00 | 0.00 | 0.00 | 75 | 1016.7 |
| 20260506114705 | 42 | 330 | 2.6 | 4.3 | 0.00 | 0.00 | 0.00 | 75 | 1016.7 |
| 20260506114204 | 42 | 330 | 3.5 | 4.3 | 0.00 | 0.00 | 0.00 | 75 | 1016.6 |
| 20260506113704 | 42 | 330 | 3.5 | 4.3 | 0.00 | 0.00 | 0.00 | 75 | 1016.6 |
| 20260506112705 | 42 | 330 | 2.6 | 5.2 | 0.00 | 0.00 | 0.00 | 76 | 1016.5 |
| 20260506112204 | 42 | 330 | 3.5 | 5.2 | 0.00 | 0.00 | 0.00 | 76 | 1016.6 |
| 20260506110704 | 42 | 330 | 3.5 | 4.3 | 0.00 | 0.00 | 0.00 | 76 | 1016.6 |
| 20260506110204 | 42 | 330 | 3.5 | 4.3 | 0.00 | 0.00 | 0.00 | 76 | 1016.6 |
| 20260506105704 | 43 | 330 | 3.5 | 4.3 | 0.00 | 0.00 | 0.00 | 76 | 1016.6 |
| 20260506105204 | 43 | 330 | 3.5 | 4.3 | 0.00 | 0.00 | 0.00 | 76 | 1016.6 |
| 20260506104704 | 43 | 330 | 3.5 | 5.2 | 0.00 | 0.00 | 0.00 | 77 | 1016.5 |
| 20260506104204 | 43 | 330 | 3.5 | 5.2 | 0.00 | 0.00 | 0.00 | 77 | 1016.5 |
| 20260506103205 | 43 | 330 | 4.3 | 5.2 | 0.00 | 0.00 | 0.00 | 77 | 1016.5 |
| 20260506102704 | 43 | 330 | 4.3 | 5.2 | 0.00 | 0.00 | 0.00 | 77 | 1016.4 |
| 20260506102204 | 43 | 330 | 4.3 | 7.0 | 0.00 | 0.00 | 0.00 | 78 | 1016.4 |
| 20260506101704 | 43 | 330 | 4.3 | 7.0 | 0.00 | 0.00 | 0.00 | 77 | 1016.4 |
| 20260506101204 | 43 | 330 | 5.2 | 7.0 | 0.00 | 0.00 | 0.00 | 78 | 1016.4 |
| 20260506100705 | 43 | 330 | 4.3 | 7.0 | 0.00 | 0.00 | 0.00 | 78 | 1016.4 |
| 20260506100204 | 43 | 329 | 4.3 | 7.0 | 0.00 | 0.00 | 0.00 | 77 | 1016.4 |
| 20260506095705 | 43 | 329 | 4.3 | 7.0 | 0.00 | 0.00 | 0.00 | 78 | 1016.5 |
| 20260506095204 | 43 | 329 | 4.3 | 7.0 | 0.00 | 0.00 | 0.00 | 78 | 1016.4 |
| 20260506094705 | 43 | 328 | 4.3 | 7.0 | 0.00 | 0.00 | 0.00 | 78 | 1016.4 |
| 20260506094206 | 43 | 327 | 4.3 | 7.0 | 0.00 | 0.00 | 0.00 | 79 | 1016.4 |
| 20260506093704 | 43 | 327 | 4.3 | 5.2 | 0.00 | 0.00 | 0.00 | 79 | 1016.4 |
| 20260506093204 | 43 | 327 | 4.3 | 5.2 | 0.00 | 0.00 | 0.00 | 79 | 1016.5 |
| 20260506092704 | 43 | 327 | 3.5 | 5.2 | 0.00 | 0.00 | 0.00 | 79 | 1016.4 |
| 20260506092204 | 43 | 327 | 3.5 | 7.0 | 0.00 | 0.00 | 0.00 | 78 | 1016.4 |
| 20260506091707 | 43 | 327 | 4.3 | 7.0 | 0.00 | 0.00 | 0.00 | 79 | 1016.4 |
| 20260506091204 | 43 | 327 | 3.5 | 7.0 | 0.00 | 0.00 | 0.00 | 78 | 1016.5 |
| 20260506090204 | 44 | 336 | 2.6 | 4.3 | 0.00 | 0.00 | 0.00 | 77 | 1016.5 |
| 20260506085704 | 44 | 336 | 3.5 | 5.2 | 0.00 | 0.00 | 0.00 | 77 | 1016.6 |
| 20260506085204 | 44 | 336 | 3.5 | 5.2 | 0.00 | 0.00 | 0.00 | 77 | 1016.6 |
| 20260506084704 | 44 | 336 | 3.5 | 5.2 | 0.00 | 0.00 | 0.00 | 77 | 1016.5 |
| 20260506084204 | 45 | 336 | 4.3 | 7.8 | 0.00 | 0.00 | 0.00 | 77 | 1016.6 |
| 20260506083705 | 45 | 336 | 4.3 | 7.8 | 0.00 | 0.00 | 0.00 | 76 | 1016.6 |
| 20260506082704 | 45 | 336 | 5.2 | 7.8 | 0.00 | 0.00 | 0.00 | 76 | 1016.4 |
| 20260506082204 | 45 | 341 | 5.2 | 7.8 | 0.00 | 0.00 | 0.00 | 76 | 1016.6 |
| 20260506081705 | 46 | 336 | 5.2 | 7.8 | 0.00 | 0.00 | 0.00 | 76 | 1016.6 |
| 20260506081204 | 46 | 334 | 5.2 | 7.8 | 0.00 | 0.00 | 0.00 | 76 | 1016.6 |
| 20260506080704 | 46 | 329 | 5.2 | 8.7 | 0.00 | 0.00 | 0.00 | 76 | 1016.6 |
| 20260506073204 | 46 | 327 | 7.0 | 11.3 | 0.00 | 0.00 | 0.00 | 79 | 1016.5 |
| 20260506072705 | 46 | 328 | 7.8 | 13.0 | 0.00 | 0.00 | 0.00 | 79 | 1016.5 |
| 20260506072205 | 46 | 321 | 8.7 | 13.0 | 0.00 | 0.00 | 0.00 | 79 | 1016.5 |
| 20260506071704 | 46 | 326 | 8.7 | 13.0 | 0.00 | 0.00 | 0.00 | 79 | 1016.5 |
| 20260506071204 | 46 | 329 | 8.7 | 12.2 | 0.00 | 0.00 | 0.00 | 78 | 1016.4 |
| 20260506070704 | 46 | 319 | 8.7 | 12.2 | 0.00 | 0.00 | 0.00 | 78 | 1016.4 |
| 20260506062204 | 47 | 318 | 6.1 | 8.7 | 0.00 | 0.00 | 0.00 | 73 | 1016.2 |
| 20260506061704 | 47 | 313 | 5.2 | 8.7 | 0.00 | 0.00 | 0.00 | 73 | 1016.3 |
| 20260506061204 | 47 | 323 | 5.2 | 8.7 | 0.00 | 0.00 | 0.00 | 73 | 1016.3 |
| 20260506060704 | 47 | 321 | 5.2 | 8.7 | 0.00 | 0.00 | 0.00 | 72 | 1016.1 |
| 20260506060204 | 48 | 338 | 5.2 | 8.7 | 0.00 | 0.00 | 0.00 | 72 | 1016.2 |
| 20260506050704 | 48 | 320 | 7.0 | 12.2 | 0.00 | 0.00 | 0.00 | 71 | 1015.7 |
| 20260506050204 | 49 | 334 | 7.0 | 10.4 | 0.00 | 0.00 | 0.00 | 71 | 1015.7 |
| 20260506044704 | 49 | 327 | 7.8 | 11.3 | 0.00 | 0.00 | 0.00 | 70 | 1015.5 |
| 20260506043204 | 49 | 315 | 6.1 | 9.6 | 0.00 | 0.00 | 0.00 | 69 | 1015.4 |
| 20260506042704 | 49 | 327 | 6.1 | 9.6 | 0.00 | 0.00 | 0.00 | 69 | 1015.3 |
| 20260506042204 | 49 | 325 | 6.1 | 9.6 | 0.00 | 0.00 | 0.00 | 68 | 1015.3 |
| 20260506041704 | 49 | 310 | 4.3 | 7.8 | 0.00 | 0.00 | 0.00 | 67 | 1015.2 |
| 20260506041204 | 49 | 326 | 3.5 | 7.8 | 0.00 | 0.00 | 0.00 | 67 | 1015.1 |
| 20260506035704 | 50 | 325 | 3.5 | 7.0 | 0.00 | 0.00 | 0.00 | 65 | 1014.7 |
| 20260506035207 | 51 | 9 | 3.5 | 7.0 | 0.00 | 0.00 | 0.00 | 64 | 1014.6 |
| 20260506034204 | 52 | 20 | 3.5 | 7.8 | 0.00 | 0.00 | 0.00 | 66 | 1014.5 |
| 20260506033704 | 52 | 49 | 3.5 | 7.8 | 0.00 | 0.00 | 0.00 | 65 | 1014.5 |
| 20260506033204 | 52 | 41 | 3.5 | 7.8 | 0.00 | 0.00 | 0.00 | 65 | 1014.5 |
| 20260506032705 | 52 | 41 | 3.5 | 7.0 | 0.00 | 0.00 | 0.00 | 64 | 1014.5 |
| 20260506032204 | 52 | 48 | 3.5 | 7.0 | 0.00 | 0.00 | 0.00 | 63 | 1014.4 |
| 20260506031704 | 53 | 51 | 3.5 | 7.0 | 0.00 | 0.00 | 0.00 | 63 | 1014.4 |
| 20260506031204 | 53 | 57 | 2.6 | 8.7 | 0.00 | 0.00 | 0.00 | 63 | 1014.3 |
| 20260506030704 | 53 | 67 | 3.5 | 8.7 | 0.00 | 0.00 | 0.00 | 62 | 1014.3 |
| 20260506025704 | 53 | 73 | 4.3 | 9.6 | 0.00 | 0.00 | 0.00 | 61 | 1014.1 |
| 20260506025204 | 54 | 68 | 4.3 | 9.6 | 0.00 | 0.00 | 0.00 | 60 | 1014.0 |
| 20260506024705 | 54 | 63 | 4.3 | 9.6 | 0.00 | 0.00 | 0.00 | 60 | 1013.9 |